Regional Weather Roundup
Issued by NWS Newport/Morehead, NC

Home | Current Version | Previous Version | Text Only | Print | Product List | Glossary On
Versions: 1 2 3 4 5 6 7 8 9 10 11 12 13 14 15 16 17 18 19 20 21 22 23 24 25 26 27 28 29 30 31 32 33 34 35 36 37 38 39 40 41 42 43 44 45 46 47 48 49 50
000
ASUS42 KMHX 270724
RWRMHX
WEATHER ROUNDUP FOR EASTERN NORTH CAROLINA
NATIONAL WEATHER SERVICE NEWPORT/MOREHEAD CITY NC
300 AM EDT MON APR 27 2015

NOTE: "FAIR" INDICATES FEW OR NO CLOUDS BELOW 12,000 FEET
WITH NO SIGNIFICANT WEATHER AND/OR OBSTRUCTIONS TO VISIBILITY

NCZ015>017-031-032-045>047-102-103-270800-
NORTH COAST

CITY           SKY/WX    TMP DP  RH WIND       PRES   REMARKS
EDENTON        CLEAR     41  40  97 CALM      29.75R
ELIZABETH CITY CLEAR     41  40  96 CALM      29.73F FOG
KITTY HAWK     SUNNY     48  38  67 CALM      29.71F
MANTEO         CLEAR     41  38  91 CALM      29.72F

$$

NCZ045>047-081-094-103-104-270800-
CENTRAL COAST

CITY           SKY/WX    TMP DP  RH WIND       PRES   REMARKS
FRISCO         CLOUDY    52  41  66 VRB6      29.70F
SWANQUARTER      N/A     46 N/A N/A NW6       29.71S

$$

NCZ095-097-098-100-101-270800-
SOUTHERN COAST

CITY           SKY/WX    TMP DP  RH WIND       PRES   REMARKS
BEAUFORT       MOCLDY    52  48  86 NW12      29.73R
CEDAR ISLAND     N/A     57 N/A N/A N12G17    29.77S
JACKSONVILLE   CLOUDY    50  48  93 W6        29.75F
PINEY ISLAND   PTSUNNY  N/A N/A N/A N8        29.72S
WILMINGTON     CLOUDY    51  49  92 N7        29.74F


$$

NCZ011>013-027>030-043-044-078>080-089-090>093-098-270800-
COASTAL PLAIN

CITY           SKY/WX    TMP DP  RH WIND       PRES   REMARKS
AHOSKIE        FOG       42  41  97 CALM      29.76S VSB 3/4
CLINTON        CLEAR     49  49 100 CALM      29.77F FOG
ELIZABETHTOWN  CLOUDY    50  50 100 CALM      29.76F
GOLDSBORO      PTCLDY    47  46  99 CALM      29.74F
GREENVILLE     CLEAR     45  45 100 CALM      29.78F
HAVELOCK       CLOUDY    51  47  86 NW7       29.75F
KENANSVILLE    MOCLDY    48  47  95 CALM      29.77F
KINSTON        PTCLDY    47  46  97 CALM      29.76S
NEW BERN       CLOUDY    51  47  86 NW7       29.77R
RICHLANDS      CLOUDY    48  45  87 CALM      29.76S
ROCKY MOUNT    PTCLDY    45  43  93 NW3       29.76F
WASHINGTON     PTCLDY    44  43  97 CALM      29.74F
WHITEVILLE     CLOUDY    51  49  93 N3        29.75S

$$

AMZ130-135-150-152-154-156-158-170-250-252-270-ANZ085-086-088-633-658-670-270800-
MARINE OBSERVATIONS

STATION/POSITION TIME  TEMP    WIND        PRES    WAVE   SWELL
                       AIR SEA DIR/SP/G            HT/PER HT/PER
                 (UTC) (F)     (DEG/KT/KT) (MB)    (FT/S) (FT/S)
CHESAPEAKE LIGHT 0700   50     180/  2/  2 1007.2
64 E VA BEACH    0650   54 55  340/  8/  8 1005.5    4/ 7   3/ 7
DUCK             0700   51 54  310/  4/  4 1005.4
2 E DUCK         0611      53                N/A     4/ 7
10 NE DUCK       NOT AVBL
OREGON INLET     0700   47 54  330/  4/  6 1006.1
HATTERAS CG      0700           10/ 14/ 17   N/A
DIAMOND BUOY     0650   60 75   10/ 19/ 23 1004.9    7/10   3/10
CAPE LOOKOUT     0700   54     330/ 10/ 12 1006.5
BEAUFORT LAB     0700   53 61  340/  6/ 11 1006.1
27 SE WRIGHTSVLE 0700   55 72   30/ 17/ 19   N/A
5 SE WRIGHTSVLE  NOT AVBL
225 S CAPE HAT   0650   67 70   20/  8/ 10 1003.9    7/ 8   7/ 8
41 SE CHARLESTON 0650   64 71   20/ 17/ 19 1005.0    6/ 6

$$



USA.gov is the U.S. government's official web portal to all federal, state and local government web resources and services.